"Pseudo-MPEC" for P10NLQS

Created 2019 May 21 8:07:16 UT using Find_Orb

Click here for an explanation of pseudo-MPECs

 
 Astrometry: 
     P10NLQS  C2019 05 09e94'Xh;6Kv#.._m3D#9K;J7_(umef[\,Nq3`9(vd%Sr38?]C9b^cF51
     P10NLQS  C2019 05 09yDFt71;LHG!?4;X8vuEnc^hcu1#]I@6Gfd8R%?tsn5+e''`MOI1=F51
     P10NLQS  C2019 05 09g`(jw,d3-QwF]W?7Astrometry790,N;K0v1]redacted;K5HC.KF51
     P10NLQS KC2019 05 11F+10r?;I?x^5rQyX%n)5j:Lp)t9_(+gPp9IechdCLSclick;W-s\H21
     P10NLQS KC2019 05 11!LFqRTM/:UMywWI65SHSwN`l+mfBIBHomeHMN]U;43eJmTXp-UDmH21
     P10NLQS KC2019 05 11!*aALddtY1NxYLO9'EMn0Qd/2K0@:%a@i%n7CTJyZlE?d/JMZlxRH21
     P10NLQS ^C2019 05 15WLqv48?m`v^)*/\ecN[bGEKrhereLx,rP^OF1!vymFSl+7vnM;Wv695
     P10NLQS ^C2019 05 15?#BDuHB[@LtJr+Ko^e*KW5b-)6I:lE3ogWEiSZd%T4x99forGw12695
     P10NLQS ^C2019 05 15\\CqyPUiyo[Eexplanation]*f:)Vnd@M.%XGL/28kn[=G2r6eAK695

Station data:
(695) Kitt Peak  (N31.958398 W111.594670)  US/Arizona.
(F51) Pan-STARRS 1, Haleakala  (N20.707235 W156.255910)  US/Hawaii.
   Observers N. Primak, A. Schultz, S. Watters, J. Thiel, T. Goggia. Measurer
   PS1 Science Consortium. 1.8-m Ritchey-Chrétien + CCD.
(H21) Astronomical Research Observatory, Westfield  (N39.483057 W87.968270)
   US/Illinois. 0.76-m f/3.0 astrograph + CCD.

Orbital elements:  P10NLQS
   Perihelion 2019 Apr 4.008294 +/- 0.0205 TT =  0:11:56 (JD 2458577.508294)
Epoch 2019 May 15.0 TT = JDT 2458618.5   Earth MOID: 0.0491   AutoNEOCP
M  26.06564650 +/- 0.14             (J2000 ecliptic)
n   0.63587610 +/- 0.00344          Peri.  349.56500 +/- 0.043
a   1.33933035 +/- 0.00484          Node   204.56954 +/- 0.035
e   0.2164528 +/- 0.00257           Incl.    6.77070 +/- 0.06
P   1.55/566.14d           H 25.9   G  0.15   U  8.9  
q 1.04942843 +/- 0.000361    Q 1.62923228 +/- 0.00937
From 9 observations 2019 May 9-15; mean residual 0".11
Residuals in arcseconds: 
190509 F51  .02-  .06-    190511 H21  .07+  .02-    190515 695  .11-  .11-    
190509 F51  .04+  .20+    190511 H21  .16+  .03+    190515 695  .09+  .07+    
190509 F51  .01-  .15-    190511 H21  .24-  .01+    190515 695  .02+  .03+    

Ephemerides (geocentric):
Date (UTC) HH   RA              Dec         delta   r     elong  mag " sig PA
---- -- -- --  -------------   -----------  ------ ------ -----  --- ---- ---
2019 05 21 08  16 32 03.024   +17 14 04.67  .12204 1.1099 141.3 23.0 1.83 110
2019 05 21 09  16 32 04.878   +17 14 13.33  .12215 1.1100 141.3 23.0 1.84 110
2019 05 21 10  16 32 06.727   +17 14 21.85  .12226 1.1101 141.3 23.0 1.86 110
2019 05 21 11  16 32 08.569   +17 14 30.24  .12238 1.1102 141.3 23.0 1.87 110
2019 05 21 12  16 32 10.406   +17 14 38.49  .12249 1.1103 141.3 23.0 1.89 111
2019 05 21 13  16 32 12.237   +17 14 46.60  .12260 1.1104 141.3 23.0 1.91 111
2019 05 21 14  16 32 14.062   +17 14 54.57  .12272 1.1105 141.3 23.0 1.92 111
2019 05 21 15  16 32 15.881   +17 15 02.41  .12283 1.1106 141.3 23.0 1.94 111
2019 05 21 16  16 32 17.694   +17 15 10.12  .12294 1.1107 141.3 23.0 1.95 112
2019 05 21 17  16 32 19.502   +17 15 17.68  .12306 1.1108 141.3 23.0 1.97 112
2019 05 21 18  16 32 21.304   +17 15 25.12  .12317 1.1109 141.3 23.0 1.98 112
2019 05 21 19  16 32 23.100   +17 15 32.41  .12328 1.1110 141.3 23.0 2.00 112
2019 05 21 20  16 32 24.890   +17 15 39.57  .12340 1.1111 141.3 23.0 2.02 113
2019 05 21 21  16 32 26.674   +17 15 46.60  .12351 1.1112 141.3 23.0 2.03 113
2019 05 21 22  16 32 28.453   +17 15 53.49  .12362 1.1113 141.3 23.0 2.05 113
2019 05 21 23  16 32 30.226   +17 16 00.25  .12374 1.1114 141.3 23.0 2.06 113
2019 05 22 00  16 32 31.994   +17 16 06.88  .12385 1.1115 141.3 23.0 2.08 114
2019 05 22 01  16 32 33.755   +17 16 13.37  .12396 1.1116 141.3 23.0 2.09 114
2019 05 22 02  16 32 35.511   +17 16 19.72  .12408 1.1117 141.3 23.0 2.11 114
2019 05 22 03  16 32 37.262   +17 16 25.95  .12419 1.1118 141.3 23.0 2.13 114
2019 05 22 04  16 32 39.007   +17 16 32.04  .12430 1.1119 141.3 23.0 2.14 115
2019 05 22 05  16 32 40.746   +17 16 37.99  .12442 1.1120 141.3 23.0 2.16 115
2019 05 22 06  16 32 42.480   +17 16 43.82  .12453 1.1121 141.3 23.0 2.18 115
2019 05 22 07  16 32 44.208   +17 16 49.51  .12465 1.1122 141.3 23.0 2.19 115
2019 05 22 08  16 32 45.931   +17 16 55.07  .12476 1.1123 141.2 23.0 2.21 116
2019 05 22 09  16 32 47.648   +17 17 00.50  .12487 1.1124 141.2 23.0 2.23 116
2019 05 22 10  16 32 49.359   +17 17 05.79  .12499 1.1125 141.2 23.0 2.24 116
2019 05 22 11  16 32 51.065   +17 17 10.96  .12510 1.1126 141.2 23.0 2.26 116
2019 05 22 12  16 32 52.766   +17 17 15.99  .12522 1.1127 141.2 23.0 2.28 117
2019 05 22 13  16 32 54.461   +17 17 20.89  .12533 1.1128 141.2 23.0 2.29 117
2019 05 22 14  16 32 56.151   +17 17 25.66  .12544 1.1129 141.2 23.0 2.31 117
2019 05 22 15  16 32 57.835   +17 17 30.30  .12556 1.1130 141.2 23.0 2.33 117
2019 05 22 16  16 32 59.514   +17 17 34.81  .12567 1.1131 141.2 23.0 2.34 117
2019 05 22 17  16 33 01.188   +17 17 39.19  .12579 1.1132 141.2 23.0 2.36 118
2019 05 22 18  16 33 02.856   +17 17 43.44  .12590 1.1133 141.2 23.0 2.38 118
2019 05 22 19  16 33 04.519   +17 17 47.56  .12602 1.1134 141.2 23.0 2.39 118
2019 05 22 20  16 33 06.176   +17 17 51.55  .12613 1.1135 141.2 23.0 2.41 118
2019 05 22 21  16 33 07.828   +17 17 55.42  .12624 1.1136 141.2 23.0 2.43 119
2019 05 22 22  16 33 09.475   +17 17 59.15  .12636 1.1137 141.2 23.0 2.45 119
2019 05 22 23  16 33 11.117   +17 18 02.75  .12647 1.1138 141.2 23.0 2.46 119
2019 05 23 00  16 33 12.753   +17 18 06.23  .12659 1.1139 141.2 23.0 2.48 119
2019 05 23 01  16 33 14.384   +17 18 09.57  .12670 1.1140 141.2 23.1 2.50 120
2019 05 23 02  16 33 16.010   +17 18 12.79  .12682 1.1141 141.2 23.1 2.51 120
2019 05 23 03  16 33 17.631   +17 18 15.88  .12693 1.1142 141.2 23.1 2.53 120
2019 05 23 04  16 33 19.246   +17 18 18.84  .12705 1.1143 141.2 23.1 2.55 120
2019 05 23 05  16 33 20.857   +17 18 21.68  .12716 1.1144 141.2 23.1 2.57 121
2019 05 23 06  16 33 22.462   +17 18 24.38  .12728 1.1145 141.2 23.1 2.59 121
2019 05 23 07  16 33 24.062   +17 18 26.96  .12739 1.1146 141.2 23.1 2.60 121